Weather History for Dublin, VA

Change the Weather History Date:

Wednesday, March 27, 2013

  Actual Average (KBCB) Record (KBCB)
Temperature  
Mean Temperature 34 °F 45 °F  
Max Temperature 39 °F 57 °F 79 °F (2007)
Min Temperature 28 °F 33 °F 12 °F (1955)
Degree Days  
Heating Degree Days 32 20  
Month to date heating degree days 649  
Since 1 July heating degree days 4697  
Cooling Degree Days 0 0  
Month to date cooling degree days 0  
Year to date cooling degree days 0  
Moisture  
Dew Point 23 °F    
Average Humidity 67    
Maximum Humidity 93    
Minimum Humidity 52    
Precipitation  
Precipitation 0.00 in 0.13 in 1.17 in (1959)
Month to date precipitation 3.12  
Year to date precipitation 9.01  
Snow  
Snow 0.00 in - - ()
Month to date snowfall  
Since 1 July snowfall  
Snow Depth -    
Sea Level Pressure  
Sea Level Pressure 30.17 in    
Wind  
Wind Speed 11 mph (WNW)    
Max Wind Speed 15 mph    
Max Gust Speed 24 mph    
Visibility 10 miles    
Events Snow    
T = Trace of Precipitation, MM = Missing Value Source: NWS Daily Summary

Daily Weather History Graph

Daily Weather History Graph

Search for Another Location

Airport:

Trip Planner

Search our weather history database for the weather conditions in past years. The results will help you decide how hot, cold, wet, or windy it might be!

Date:

Astronomy

Mar. 27, 2013 Rise Set
Actual Time 7:15 AM EDT 7:41 PM EDT
Civil Twilight 6:49 AM EDT 8:07 PM EDT
Nautical Twilight 6:18 AM EDT 8:37 PM EDT
Astronomical Twilight 5:47 AM EDT 9:09 PM EDT
Moon 8:21 PM EDT (3/27) 7:06 AM EDT (3/27)
Length of Visible Light 13h 17m
Length of Day
12h 25m
Full, 100% of the Moon is Illuminated
Mar 27
Full
Apr 3
Last Quarter
Apr 10
New
Apr 18
First Quarter
Apr 25
Full

Hourly Weather History & Observations

Time (EDT) Temp. Windchill Dew Point Humidity Pressure Visibility Wind Dir Wind Speed Gust Speed Precip Events Conditions
12:15 AM 33.8 °F 24.3 °F 24.8 °F 70% 30.11 in 10.0 mi NW 13.8 mph 18.4 mph N/A   Overcast
12:35 AM 33.8 °F 24.8 °F 26.6 °F 75% 30.12 in 7.0 mi WNW 12.7 mph 20.7 mph N/A Snow Light Snow
12:55 AM 32.0 °F 25.6 °F 26.6 °F 80% 30.12 in 10.0 mi NW 6.9 mph - N/A   Overcast
1:15 AM 33.8 °F 27.0 °F 26.6 °F 75% 30.12 in 10.0 mi WNW 8.1 mph - N/A   Overcast
1:35 AM 32.0 °F 24.8 °F 26.6 °F 80% 30.12 in 5.0 mi West 8.1 mph - N/A Snow Light Snow
1:55 AM 30.2 °F 20.8 °F 26.6 °F 86% 30.13 in 10.0 mi WNW 11.5 mph - N/A Snow Light Snow
2:15 AM 32.0 °F 26.4 °F 26.6 °F 80% 30.12 in 10.0 mi NW 5.8 mph - N/A   Overcast
2:35 AM 32.0 °F 28.7 °F 24.8 °F 75% 30.12 in 10.0 mi NW 3.5 mph - N/A   Overcast
2:55 AM 32.0 °F 25.6 °F 24.8 °F 75% 30.12 in 10.0 mi NW 6.9 mph - N/A Snow Light Snow
3:15 AM 30.2 °F 23.4 °F 26.6 °F 86% 30.12 in 3.0 mi WNW 6.9 mph - N/A Snow Light Snow
3:35 AM 30.2 °F 24.3 °F 28.4 °F 93% 30.12 in 1.2 mi WNW 5.8 mph - N/A Snow Light Snow
3:55 AM 30.2 °F 21.9 °F 28.4 °F 93% 30.12 in 10.0 mi NW 9.2 mph - N/A   Overcast
4:15 AM 30.2 °F 19.8 °F 24.8 °F 80% 30.12 in 10.0 mi WNW 13.8 mph 17.3 mph N/A   Mostly Cloudy
4:35 AM 30.2 °F 20.8 °F 21.2 °F 69% 30.11 in 10.0 mi WNW 11.5 mph 20.7 mph N/A   Overcast
4:55 AM 30.2 °F 19.8 °F 23.0 °F 75% 30.11 in 5.0 mi WNW 13.8 mph 21.9 mph N/A Snow Light Snow
5:15 AM 30.2 °F 19.8 °F 21.2 °F 69% 30.12 in 10.0 mi West 13.8 mph 18.4 mph N/A   Overcast
5:35 AM 30.2 °F 19.3 °F 19.4 °F 64% 30.12 in 10.0 mi WNW 15.0 mph 19.6 mph N/A   Overcast
5:55 AM 30.2 °F 19.3 °F 21.2 °F 69% 30.12 in 10.0 mi WNW 15.0 mph - N/A   Overcast
6:15 AM 30.2 °F 19.8 °F 23.0 °F 75% 30.13 in 5.0 mi West 13.8 mph 17.3 mph N/A Snow Light Snow
6:35 AM 30.2 °F 20.8 °F 24.8 °F 80% 30.13 in 7.0 mi WNW 11.5 mph - N/A Snow Light Snow
6:55 AM 30.2 °F 21.3 °F 21.2 °F 69% 30.14 in 10.0 mi WNW 10.4 mph - N/A   Mostly Cloudy
7:15 AM 30.2 °F 22.6 °F 21.2 °F 69% 30.15 in 10.0 mi NW 8.1 mph - N/A   Mostly Cloudy
7:35 AM 30.2 °F 19.3 °F 19.4 °F 64% 30.15 in 10.0 mi WNW 15.0 mph - N/A   Mostly Cloudy
7:55 AM 28.4 °F 19.1 °F 19.4 °F 69% 30.16 in 10.0 mi WNW 10.4 mph - N/A   Scattered Clouds
8:15 AM 30.2 °F 20.8 °F 21.2 °F 69% 30.16 in 10.0 mi West 11.5 mph - N/A   Scattered Clouds
8:35 AM 32.0 °F 23.0 °F 21.2 °F 64% 30.17 in 10.0 mi West 11.5 mph 19.6 mph N/A Snow Light Snow
8:55 AM 32.0 °F 22.1 °F 23.0 °F 69% 30.17 in 10.0 mi West 13.8 mph 18.4 mph N/A Snow Light Snow
9:15 AM 32.0 °F 23.0 °F 21.2 °F 64% 30.18 in 10.0 mi West 11.5 mph - N/A   Clear
9:35 AM 33.8 °F 25.3 °F 21.2 °F 60% 30.19 in 10.0 mi WNW 11.5 mph 18.4 mph N/A   Scattered Clouds
9:55 AM 32.0 °F 23.6 °F 19.4 °F 60% 30.19 in 10.0 mi West 10.4 mph - N/A   Mostly Cloudy
10:15 AM 33.8 °F 26.4 °F 19.4 °F 56% 30.19 in 10.0 mi WNW 9.2 mph 20.7 mph N/A   Overcast
10:35 AM 33.8 °F 27.0 °F 19.4 °F 56% 30.19 in 10.0 mi WNW 8.1 mph 23.0 mph N/A   Overcast
10:55 AM 33.8 °F 26.4 °F 21.2 °F 60% 30.19 in 10.0 mi West 9.2 mph - N/A   Overcast
11:15 AM 33.8 °F 26.4 °F 21.2 °F 60% 30.20 in 10.0 mi West 9.2 mph 12.7 mph N/A   Overcast
11:35 AM 33.8 °F 25.8 °F 21.2 °F 60% 30.20 in 10.0 mi WNW 10.4 mph 16.1 mph N/A   Overcast
11:55 AM 33.8 °F 25.3 °F 21.2 °F 60% 30.20 in 10.0 mi WNW 11.5 mph 16.1 mph N/A Snow Light Snow
12:15 PM 35.6 °F 28.6 °F 21.2 °F 56% 30.20 in 10.0 mi WNW 9.2 mph 16.1 mph N/A   Overcast
12:35 PM 33.8 °F 25.8 °F 21.2 °F 60% 30.20 in 10.0 mi NW 10.4 mph 18.4 mph N/A   Overcast
12:55 PM 35.6 °F 27.5 °F 21.2 °F 56% 30.21 in 10.0 mi NW 11.5 mph 18.4 mph N/A   Overcast
1:15 PM 35.6 °F 27.5 °F 21.2 °F 56% 30.21 in 10.0 mi WNW 11.5 mph 17.3 mph N/A   Overcast
1:35 PM 35.6 °F 29.2 °F 21.2 °F 56% 30.21 in 10.0 mi NW 8.1 mph 20.7 mph N/A   Overcast
1:55 PM 35.6 °F 28.0 °F 21.2 °F 56% 30.21 in 10.0 mi NW 10.4 mph 19.6 mph N/A   Overcast
2:15 PM 35.6 °F 27.5 °F 21.2 °F 56% 30.21 in 10.0 mi WNW 11.5 mph - N/A   Overcast
2:35 PM 35.6 °F 26.6 °F 21.2 °F 56% 30.20 in 10.0 mi WNW 13.8 mph 18.4 mph N/A   Overcast
2:55 PM 35.6 °F 27.1 °F 21.2 °F 56% 30.20 in 10.0 mi WNW 12.7 mph 18.4 mph N/A   Overcast
3:15 PM 37.4 °F 29.8 °F 21.2 °F 52% 30.19 in 10.0 mi West 11.5 mph 24.2 mph N/A   Overcast
3:35 PM 37.4 °F 28.9 °F 24.8 °F 60% 30.18 in 10.0 mi West 13.8 mph 19.6 mph N/A   Scattered Clouds
3:55 PM 37.4 °F 31.4 °F 21.2 °F 52% 30.17 in 10.0 mi NW 8.1 mph 19.6 mph N/A   Mostly Cloudy
4:15 PM 37.4 °F 29.3 °F 21.2 °F 52% 30.17 in 10.0 mi West 12.7 mph - N/A   Overcast
4:35 PM 39.2 °F 32.0 °F 23.0 °F 52% 30.17 in 10.0 mi West 11.5 mph 17.3 mph N/A   Overcast
4:55 PM 39.2 °F 31.6 °F 23.0 °F 52% 30.16 in 10.0 mi West 12.7 mph 20.7 mph N/A   Overcast
5:15 PM 39.2 °F 32.5 °F 24.8 °F 56% 30.17 in 10.0 mi WNW 10.4 mph - N/A   Mostly Cloudy
5:35 PM 37.4 °F 31.4 °F 24.8 °F 60% 30.18 in 10.0 mi West 8.1 mph 16.1 mph N/A   Overcast
5:55 PM 37.4 °F 29.8 °F 23.0 °F 56% 30.18 in 10.0 mi WNW 11.5 mph 20.7 mph N/A   Overcast
6:15 PM 37.4 °F 30.8 °F 24.8 °F 60% 30.18 in 10.0 mi NW 9.2 mph - N/A   Overcast
6:35 PM 37.4 °F 31.4 °F 24.8 °F 60% 30.18 in 10.0 mi WNW 8.1 mph 17.3 mph N/A   Mostly Cloudy
6:55 PM 35.6 °F 27.1 °F 24.8 °F 65% 30.19 in 10.0 mi West 12.7 mph - N/A   Overcast
7:15 PM 35.6 °F 28.6 °F 24.8 °F 65% 30.20 in 10.0 mi West 9.2 mph - N/A Snow Light Snow
7:35 PM 35.6 °F 28.0 °F 24.8 °F 65% 30.20 in 10.0 mi West 10.4 mph 16.1 mph N/A   Mostly Cloudy
7:55 PM 33.8 °F 25.8 °F 26.6 °F 75% 30.20 in 10.0 mi WNW 10.4 mph 18.4 mph N/A   Mostly Cloudy
8:15 PM 33.8 °F 25.3 °F 24.8 °F 70% 30.20 in 10.0 mi West 11.5 mph - N/A   Mostly Cloudy
8:35 PM 33.8 °F 25.8 °F 24.8 °F 70% 30.20 in 10.0 mi WNW 10.4 mph 18.4 mph N/A   Mostly Cloudy
8:55 PM 33.8 °F 24.3 °F 24.8 °F 70% 30.20 in 10.0 mi West 13.8 mph - N/A   Overcast
9:15 PM 33.8 °F 24.8 °F 24.8 °F 70% 30.21 in 10.0 mi WNW 12.7 mph 18.4 mph N/A   Mostly Cloudy
9:35 PM 33.8 °F 24.8 °F 24.8 °F 70% 30.21 in 10.0 mi WNW 12.7 mph 18.4 mph N/A   Overcast
9:55 PM 33.8 °F 24.8 °F 24.8 °F 70% 30.22 in 10.0 mi WNW 12.7 mph - N/A   Overcast
10:15 PM 33.8 °F 25.8 °F 26.6 °F 75% 30.22 in 10.0 mi West 10.4 mph - N/A Snow Light Snow
10:35 PM 33.8 °F 25.8 °F 26.6 °F 75% 30.22 in 10.0 mi WNW 10.4 mph - N/A   Overcast
10:55 PM 33.8 °F 24.3 °F 26.6 °F 75% 30.22 in 10.0 mi WNW 13.8 mph 17.3 mph N/A   Overcast
11:15 PM 33.8 °F 25.3 °F 24.8 °F 70% 30.21 in 10.0 mi WNW 11.5 mph 20.7 mph N/A   Mostly Cloudy
11:35 PM 33.8 °F 25.3 °F 24.8 °F 70% 30.21 in 10.0 mi NW 11.5 mph 17.3 mph N/A   Scattered Clouds
11:55 PM 33.8 °F 24.3 °F 24.8 °F 70% 30.21 in 10.0 mi WNW 13.8 mph - N/A   Scattered Clouds